Location: Abundant Grace Fellowship
(35.0349°N, 90.0924°W)
Time: 09:39:50
(UTC+00:00)

Meteor 2-10 Rocket - Pass Details

Date: 18 January 2026
Orbit: 733 x 881 km, 81.2° (Epoch: 9 February)

Event Time Altitude Azimuth Distance (km) Brightness Sun altitude
Rises 10:50:56 0° 180° (S) 3,157 6.8 -27.6°
Reaches altitude 10° 10:53:13 10° 178° (S) 2,249 6.0 -27.1°
Maximum altitude 10:58:13 68° 95° (E) 815 3.7 -26.1°
Drops below altitude 10° 11:03:26 10° 14° (NNE) 2,338 6.1 -25.0°
Sets 11:05:51 0° 12° (NNE) 3,293 6.8 -24.5°
